Weather History for Pensacola NAS, FL

Change the Weather History Date:

Wednesday, December 26, 2012

  Actual Average Record
Temperature  
Mean Temperature 48 °F -  
Max Temperature 59 °F 58 °F 72 °F (2008)
Min Temperature 37 °F 39 °F 28 °F (1999)
Degree Days  
Heating Degree Days 17    
Moisture  
Dew Point 36 °F    
Average Humidity 69    
Maximum Humidity 87    
Minimum Humidity 56    
Precipitation  
Precipitation 0.00 in - - ()
Sea Level Pressure  
Sea Level Pressure 29.96 in    
Wind  
Wind Speed 11 mph (NW)    
Max Wind Speed 17 mph    
Max Gust Speed 28 mph    
Visibility 10 miles    
Events      
Averages and records for this station are not official NWS values.
T = Trace of Precipitation, MM = Missing Value Source: NWS Daily Summary

Daily Weather History Graph

Daily Weather History Graph

Search for Another Location

Airport:

Trip Planner

Search our weather history database for the weather conditions in past years. The results will help you decide how hot, cold, wet, or windy it might be!

Date:

Astronomy

Dec. 26, 2012 Rise Set
Actual Time 6:44 AM CST 4:56 PM CST
Civil Twilight 6:17 AM CST 5:22 PM CST
Nautical Twilight 5:47 AM CST 5:52 PM CST
Astronomical Twilight 5:18 AM CST 6:21 PM CST
Moon 3:47 PM CST (12/26) 5:09 AM CST (12/26)
Length of Visible Light 11h 04m
Length of Day
10h 11m
Waxing Gibbous, 97% of the Moon is Illuminated
Dec 26
Waxing Gibbous
Dec 28
Full
Jan 4
Last Quarter
Jan 11
New
Jan 18
First Quarter

Hourly Weather History & Observations

Time (CST) Temp. Windchill Dew Point Humidity Pressure Visibility Wind Dir Wind Speed Gust Speed Precip Events Conditions
12:56 AM 59.0 °F - - N/A% 29.70 in 10.0 mi West 9.2 mph - N/A   Mostly Cloudy
1:56 AM 57.9 °F - 50.0 °F 75% 29.70 in 10.0 mi West 11.5 mph 23.0 mph N/A   Clear
2:56 AM 57.0 °F - 45.0 °F 64% 29.72 in 10.0 mi WSW 15.0 mph 27.6 mph N/A   Clear
3:56 AM 54.0 °F - 46.0 °F 75% 29.73 in 10.0 mi West 11.5 mph 19.6 mph N/A   Scattered Clouds
4:56 AM 52.0 °F - 43.0 °F 71% 29.76 in 10.0 mi West 13.8 mph 23.0 mph N/A   Overcast
5:56 AM 45.0 °F 40.1 °F 37.0 °F 74% 29.83 in 10.0 mi WNW 9.2 mph 16.1 mph N/A   Mostly Cloudy
6:56 AM 42.1 °F 37.7 °F 33.1 °F 70% 29.88 in 10.0 mi WNW 6.9 mph 16.1 mph N/A   Mostly Cloudy
7:56 AM 42.1 °F 36.1 °F 32.0 °F 67% 29.91 in 10.0 mi NW 10.4 mph 23.0 mph N/A   Mostly Cloudy
8:28 AM 42.8 °F 35.8 °F 32.0 °F 66% 29.92 in 10.0 mi NW 13.8 mph 26.5 mph N/A   Mostly Cloudy
8:56 AM 43.0 °F 36.0 °F 33.1 °F 68% 29.95 in 10.0 mi NW 13.8 mph 23.0 mph N/A   Mostly Cloudy
9:56 AM 45.0 °F 37.6 °F 33.1 °F 63% 29.98 in 10.0 mi NW 17.3 mph 24.2 mph N/A   Mostly Cloudy
10:44 AM 46.4 °F 41.5 °F 33.8 °F 62% 29.97 in 10.0 mi NW 10.4 mph 23.0 mph N/A   Mostly Cloudy
10:56 AM 46.9 °F - 33.1 °F 59% 29.97 in 10.0 mi NW 12.7 mph 23.0 mph N/A   Mostly Cloudy
11:56 AM 48.0 °F - 33.1 °F 56% 29.96 in 10.0 mi NNW 12.7 mph 24.2 mph N/A   Mostly Cloudy
12:56 PM 50.0 °F - 35.1 °F 57% 29.96 in 10.0 mi NNW 9.2 mph - N/A   Scattered Clouds
1:56 PM 50.0 °F - 35.1 °F 57% 29.96 in 10.0 mi WNW 11.5 mph 19.6 mph N/A   Scattered Clouds
2:56 PM 50.0 °F - 35.1 °F 57% 29.97 in 10.0 mi NW 8.1 mph 19.6 mph N/A   Scattered Clouds
3:56 PM 48.0 °F - 34.0 °F 58% 30.00 in 10.0 mi NNW 11.5 mph - N/A   Mostly Cloudy
4:56 PM 46.0 °F 41.4 °F 34.0 °F 63% 30.02 in 10.0 mi NNW 9.2 mph - N/A   Mostly Cloudy
5:56 PM 45.0 °F 41.8 °F 35.1 °F 68% 30.06 in 10.0 mi NNW 5.8 mph - N/A   Mostly Cloudy
6:56 PM 43.0 °F 38.8 °F 35.1 °F 74% 30.09 in 10.0 mi NNW 6.9 mph - N/A   Mostly Cloudy
7:56 PM 42.1 °F 36.6 °F 34.0 °F 73% 30.11 in 10.0 mi NNW 9.2 mph - N/A   Mostly Cloudy
8:56 PM 39.9 °F 34.5 °F 33.1 °F 77% 30.13 in 10.0 mi NNW 8.1 mph - N/A   Mostly Cloudy
9:56 PM 39.0 °F 35.7 °F 33.1 °F 79% 30.15 in 10.0 mi NNW 4.6 mph - N/A   Clear
10:56 PM 37.9 °F 32.7 °F 32.0 °F 79% 30.14 in 10.0 mi NNW 6.9 mph - N/A   Clear
11:41 PM 37.4 °F 32.1 °F 33.8 °F 87% 30.13 in 10.0 mi NNW 6.9 mph - N/A   Mostly Cloudy
11:56 PM 37.9 °F 33.5 °F 33.1 °F 83% 30.13 in 10.0 mi NNW 5.8 mph - N/A   Overcast